When you browse on this site, cookies collect data to enhance your experience and personalize the content and advertising you see.
Visit our Privacy Policy to learn more. By continuing to use the site, you agree to this use of cookies and data.
  • In Sweden
  • List of Countries
  • For 7 days
  • Water Temperature
  • Satellite Maps
  • Weather Map
  • Weather Widgets
  • user-avatar
    Login

    Hourly Weather Beyşehir

    Today, 20 November, Tuesday

    Time Temperature Precipitation Wind Pressure Humidity
    00:00 +7°C° 0 mm 2 mps 665 mmHg 67%
    01:00 +8°C° 0 mm 1 mps 665 mmHg 68%
    02:00 +8°C° 0 mm 1 mps 665 mmHg 74%
    03:00 +7°C° 0 mm 1 mps 665 mmHg 75%
    04:00 +7°C° 0 mm 1 mps 665 mmHg 77%
    05:00 +7°C° 0 mm 1 mps 665 mmHg 78%
    06:00 +8°C° 0 mm 1 mps 666 mmHg 75%
    07:00 +9°C° 0 mm 1 mps 666 mmHg 72%
    08:00 +11°C° 0 mm 1 mps 667 mmHg 67%
    09:00 +12°C° 0 mm 1 mps 667 mmHg 62%
    10:00 +13°C° 0 mm 1 mps 667 mmHg 56%
    11:00 +15°C° 0 mm 1 mps 668 mmHg 51%
    12:00 +15°C° 0 mm 1 mps 668 mmHg 49%
    13:00 +16°C° 0 mm 1 mps 667 mmHg 47%
    14:00 +16°C° 0 mm 2 mps 667 mmHg 45%
    15:00 +15°C° 0 mm 1 mps 667 mmHg 51%
    16:00 +13°C° 0 mm 1 mps 666 mmHg 57%
    17:00 +12°C° 0 mm 1 mps 666 mmHg 63%
    18:00 +11°C° 0 mm 1 mps 666 mmHg 67%
    19:00 +11°C° 0 mm 1 mps 665 mmHg 70%
    20:00 +10°C° 0 mm 1 mps 665 mmHg 73%
    21:00 +10°C° 0 mm 1 mps 665 mmHg 74%
    22:00 +10°C° 0 mm 1 mps 665 mmHg 75%
    23:00 +10°C° 0 mm 1 mps 665 mmHg 76%

    Tomorrow, 21 November, Wednesday

    Time Temperature Precipitation Wind Pressure Humidity
    00:00 +10°C° 0 mm 1 mps 665 mmHg 76%
    01:00 +10°C° 0 mm 1 mps 664 mmHg 76%
    02:00 +10°C° 0 mm 1 mps 664 mmHg 76%
    03:00 +10°C° 0 mm 1 mps 664 mmHg 76%
    04:00 +9°C° 0 mm 1 mps 664 mmHg 76%
    05:00 +9°C° 0 mm 1 mps 664 mmHg 75%
    06:00 +10°C° 0.1 mm 1 mps 664 mmHg 74%
    07:00 +10°C° 0.1 mm 1 mps 664 mmHg 72%
    08:00 +11°C° 0.1 mm 1 mps 664 mmHg 70%
    09:00 +12°C° 0 mm 2 mps 664 mmHg 66%
    10:00 +13°C° 0 mm 2 mps 664 mmHg 62%
    11:00 +14°C° 0 mm 2 mps 664 mmHg 58%
    12:00 +14°C° 0 mm 2 mps 664 mmHg 57%
    13:00 +13°C° 0 mm 3 mps 663 mmHg 56%
    14:00 +14°C° 0 mm 3 mps 663 mmHg 56%
    15:00 +14°C° 0 mm 2 mps 662 mmHg 62%
    16:00 +13°C° 0 mm 2 mps 662 mmHg 68%
    17:00 +10°C° 0 mm 2 mps 661 mmHg 75%
    18:00 +10°C° 0.2 mm 2 mps 661 mmHg 79%
    19:00 +9°C° 0.2 mm 2 mps 661 mmHg 83%
    20:00 +9°C° 0.2 mm 2 mps 661 mmHg 86%
    21:00 +9°C° 0.2 mm 2 mps 661 mmHg 87%
    22:00 +10°C° 0.2 mm 1 mps 661 mmHg 88%
    23:00 +9°C° 0.2 mm 1 mps 661 mmHg 90%

    Day after tomorrow, 22 November, Thursday

    Time Temperature Precipitation Wind Pressure Humidity
    00:00 +9°C° 0.1 mm 1 mps 660 mmHg 90%
    01:00 +8°C° 0.1 mm 1 mps 660 mmHg 91%
    02:00 +8°C° 0.1 mm 1 mps 660 mmHg 92%
    03:00 +7°C° 0 mm 1 mps 660 mmHg 92%
    04:00 +7°C° 0 mm 1 mps 659 mmHg 92%
    05:00 +5°C° 0 mm 0 mps 659 mmHg 92%
    06:00 +6°C° 0 mm 0 mps 660 mmHg 89%
    07:00 +7°C° 0 mm 0 mps 660 mmHg 87%
    08:00 +8°C° 0 mm 0 mps 661 mmHg 84%
    09:00 +10°C° 0.1 mm 0 mps 661 mmHg 75%
    10:00 +12°C° 0.1 mm 1 mps 661 mmHg 67%
    11:00 +13°C° 0.1 mm 1 mps 661 mmHg 58%
    12:00 +13°C° 0.1 mm 1 mps 661 mmHg 55%
    13:00 +14°C° 0.1 mm 1 mps 661 mmHg 52%
    14:00 +14°C° 0.1 mm 1 mps 660 mmHg 50%
    15:00 +13°C° 0.1 mm 1 mps 660 mmHg 54%
    16:00 +12°C° 0.1 mm 1 mps 660 mmHg 59%
    17:00 +11°C° 0.1 mm 1 mps 660 mmHg 63%
    18:00 +10°C° 0.1 mm 1 mps 660 mmHg 65%
    19:00 +10°C° 0.1 mm 1 mps 660 mmHg 68%
    20:00 +9°C° 0.1 mm 1 mps 660 mmHg 70%
    21:00 +9°C° 0.1 mm 1 mps 660 mmHg 72%
    22:00 +9°C° 0.1 mm 1 mps 660 mmHg 74%
    23:00 +8°C° 0.1 mm 1 mps 660 mmHg 76%

    23 November, Friday

    Time Temperature Precipitation Wind Pressure Humidity
    00:00 +8°C° 0.1 mm 1 mps 660 mmHg 78%
    01:00 +8°C° 0.1 mm 1 mps 660 mmHg 80%
    02:00 +6°C° 0.1 mm 2 mps 660 mmHg 82%
    03:00 +6°C° 0.2 mm 2 mps 660 mmHg 84%
    04:00 +6°C° 0.2 mm 2 mps 660 mmHg 86%
    05:00 +6°C° 0.2 mm 2 mps 660 mmHg 87%
    06:00 +7°C° 0.2 mm 2 mps 661 mmHg 87%
    07:00 +7°C° 0.2 mm 2 mps 661 mmHg 86%
    08:00 +7°C° 0.2 mm 2 mps 662 mmHg 86%
    09:00 +8°C° 0.2 mm 2 mps 662 mmHg 82%
    10:00 +8°C° 0.2 mm 3 mps 662 mmHg 77%
    11:00 +9°C° 0.2 mm 3 mps 662 mmHg 73%
    12:00 +9°C° 0.1 mm 3 mps 662 mmHg 72%
    13:00 +9°C° 0.1 mm 3 mps 662 mmHg 71%
    14:00 +9°C° 0.1 mm 3 mps 662 mmHg 69%
    15:00 +9°C° 0.1 mm 3 mps 662 mmHg 72%
    16:00 +8°C° 0.1 mm 3 mps 662 mmHg 75%
    17:00 +7°C° 0.1 mm 3 mps 662 mmHg 77%
    18:00 +7°C° 0.1 mm 3 mps 662 mmHg 80%
    19:00 +7°C° 0.1 mm 3 mps 663 mmHg 82%
    20:00 +7°C° 0.1 mm 2 mps 663 mmHg 84%
    21:00 +6°C° 0.1 mm 2 mps 663 mmHg 85%
    22:00 +6°C° 0.1 mm 2 mps 663 mmHg 86%
    23:00 +6°C° 0.1 mm 2 mps 663 mmHg 87%

    24 November, Saturday

    Time Temperature Precipitation Wind Pressure Humidity
    00:00 +6°C° 0 mm 2 mps 663 mmHg 87%
    01:00 +6°C° 0 mm 2 mps 663 mmHg 87%
    02:00 +5°C° 0 mm 2 mps 663 mmHg 87%
    03:00 +5°C° 0 mm 2 mps 663 mmHg 88%
    04:00 +4°C° 0 mm 2 mps 663 mmHg 88%
    05:00 +4°C° 0 mm 2 mps 663 mmHg 89%
    06:00 +4°C° 0 mm 2 mps 664 mmHg 87%
    07:00 +4°C° 0 mm 2 mps 664 mmHg 85%
    08:00 +4°C° 0 mm 2 mps 664 mmHg 82%
    09:00 +5°C° 0 mm 2 mps 665 mmHg 76%
    10:00 +8°C° 0 mm 1 mps 665 mmHg 70%
    11:00 +9°C° 0 mm 1 mps 665 mmHg 64%
    12:00 +9°C° 0 mm 1 mps 665 mmHg 61%
    13:00 +10°C° 0 mm 1 mps 664 mmHg 59%
    14:00 +11°C° 0 mm 1 mps 664 mmHg 57%
    15:00 +10°C° 0 mm 1 mps 664 mmHg 61%
    16:00 +9°C° 0 mm 1 mps 664 mmHg 65%
    17:00 +8°C° 0 mm 1 mps 663 mmHg 69%
    18:00 +7°C° 0 mm 1 mps 664 mmHg 71%
    19:00 +7°C° 0 mm 1 mps 664 mmHg 74%
    20:00 +6°C° 0 mm 1 mps 664 mmHg 77%
    21:00 +6°C° 0 mm 1 mps 664 mmHg 78%
    22:00 +5°C° 0 mm 1 mps 664 mmHg 80%
    23:00 +4°C° 0 mm 0 mps 664 mmHg 82%

    25 November, Sunday

    Time Temperature Precipitation Wind Pressure Humidity
    00:00 +4°C° 0 mm 0 mps 664 mmHg 82%
    01:00 +4°C° 0 mm 0 mps 663 mmHg 83%
    02:00 +3°C° 0 mm 0 mps 663 mmHg 84%
    03:00 +3°C° 0 mm 0 mps 663 mmHg 84%
    04:00 +3°C° 0 mm 0 mps 663 mmHg 84%
    05:00 +3°C° 0 mm 0 mps 662 mmHg 85%
    06:00 +4°C° 0 mm 0 mps 663 mmHg 81%
    07:00 +5°C° 0 mm 0 mps 663 mmHg 77%
    08:00 +6°C° 0 mm 0 mps 664 mmHg 73%
    09:00 +8°C° 0 mm 1 mps 664 mmHg 67%
    10:00 +10°C° 0 mm 1 mps 664 mmHg 60%
    11:00 +11°C° 0 mm 1 mps 664 mmHg 53%
    12:00 +12°C° 0 mm 1 mps 664 mmHg 51%
    13:00 +12°C° 0 mm 1 mps 664 mmHg 49%
    14:00 +13°C° 0 mm 1 mps 663 mmHg 47%
    15:00 +11°C° 0 mm 1 mps 663 mmHg 52%
    16:00 +10°C° 0 mm 1 mps 663 mmHg 58%
    17:00 +9°C° 0 mm 1 mps 662 mmHg 63%
    18:00 +8°C° 0 mm 1 mps 662 mmHg 66%
    19:00 +8°C° 0 mm 1 mps 662 mmHg 69%
    20:00 +7°C° 0 mm 1 mps 662 mmHg 72%
    21:00 +7°C° 0 mm 1 mps 662 mmHg 74%
    22:00 +6°C° 0 mm 1 mps 662 mmHg 77%
    23:00 +6°C° 0 mm 1 mps 662 mmHg 79%
    Show more